Location: Bannatyne
(13.0833°N, 59.5333°W)
Time: 04:56:49
(UTC+00:00)

Cosmos 2058 Rocket - Pass Details

Date: 18 October 2019
Orbit: 611 x 639 km, 82.5° (Epoch: 14 November)

Event Time Altitude Azimuth Distance (km) Brightness Sun altitude
Rises 21:58:26 0° 192° (SSW) 2,884 6.8 -5.8°
Reaches altitude 10° 22:00:42 10° 196° (SSW) 1,974 6.0 -6.4°
Maximum altitude 22:04:59 57° 274° (W) 724 3.8 -7.4°
Drops below altitude 10° 22:09:15 10° 354° (N) 1,963 5.6 -8.5°
Sets 22:11:30 0° 358° (N) 2,866 6.4 -9.0°
